TimeMDT,TemperatureF,Dew PointF,Humidity,Sea Level PressureIn,VisibilityMPH,Wind Direction,Wind SpeedMPH,Gust SpeedMPH,PrecipitationIn,Events,Conditions,WindDirDegrees,DateUTC
12:51 AM,57.0,39.0,51,29.87,10.0,WSW,3.5,-,N/A,,Clear,250,2013-07-13 06:51:00
1:51 AM,55.0,37.0,51,29.89,10.0,Calm,Calm,-,N/A,,Clear,0,2013-07-13 07:51:00
2:51 AM,52.0,35.1,53,29.92,10.0,NW,4.6,-,N/A,,Clear,320,2013-07-13 08:51:00
3:51 AM,55.9,32.0,40,29.91,10.0,North,9.2,-,N/A,,Clear,360,2013-07-13 09:51:00
4:51 AM,51.1,36.0,56,29.94,10.0,Calm,Calm,-,N/A,,Clear,0,2013-07-13 10:51:00
5:51 AM,46.0,36.0,68,29.97,10.0,Calm,Calm,-,N/A,,Clear,0,2013-07-13 11:51:00
6:51 AM,44.1,37.9,79,29.99,10.0,Calm,Calm,-,N/A,,Clear,0,2013-07-13 12:51:00
7:51 AM,51.1,35.1,54,29.99,10.0,Calm,Calm,-,N/A,,Clear,0,2013-07-13 13:51:00
8:51 AM,57.9,35.1,42,30.00,10.0,Calm,Calm,-,N/A,,Clear,0,2013-07-13 14:51:00
9:51 AM,61.0,35.1,38,30.03,10.0,Calm,Calm,-,N/A,,Clear,0,2013-07-13 15:51:00
10:51 AM,66.0,37.0,34,30.02,10.0,NW,5.8,-,N/A,,Clear,320,2013-07-13 16:51:00
11:51 AM,66.0,34.0,30,30.04,10.0,Calm,Calm,-,N/A,,Clear,0,2013-07-13 17:51:00
12:51 PM,70.0,34.0,27,30.04,10.0,Variable,4.6,-,N/A,,Clear,0,2013-07-13 18:51:00
1:51 PM,71.1,33.1,25,30.04,10.0,Variable,3.5,-,N/A,,Clear,0,2013-07-13 19:51:00
2:51 PM,73.9,34.0,23,30.03,10.0,Variable,6.9,-,N/A,,Clear,0,2013-07-13 20:51:00
3:51 PM,73.9,34.0,23,30.01,10.0,NE,5.8,-,N/A,,Clear,40,2013-07-13 21:51:00
4:51 PM,75.0,32.0,21,30.02,10.0,North,5.8,-,N/A,,Clear,350,2013-07-13 22:51:00
5:51 PM,75.0,32.0,21,30.01,10.0,WNW,6.9,-,N/A,,Clear,290,2013-07-13 23:51:00
6:51 PM,73.9,28.0,18,30.02,10.0,WSW,3.5,-,N/A,,Clear,250,2013-07-14 00:51:00
7:51 PM,73.9,27.0,18,30.01,10.0,Calm,Calm,-,N/A,,Clear,0,2013-07-14 01:51:00
8:51 PM,71.1,28.0,20,30.00,10.0,West,4.6,-,N/A,,Clear,270,2013-07-14 02:51:00
9:51 PM,64.9,37.0,36,30.03,10.0,NW,4.6,-,N/A,,Clear,310,2013-07-14 03:51:00
10:51 PM,63.0,36.0,37,30.03,10.0,North,4.6,-,N/A,,Clear,360,2013-07-14 04:51:00
11:51 PM,61.0,35.1,38,30.04,10.0,North,5.8,-,N/A,,Clear,10,2013-07-14 05:51:00